TIME,DELAY(SENSOR),PRES,OXYGEN,RAWTEMP,T(OPTODE),TCPHASE,FLUOR,BETA(BETA700),BETA(BETA412),BETA(BETA440),CDOM,C(CSC),ED(ED412.20),ED(ED444.00),ED(ED489.60),ED(ED554.30),LU(LU412.10),LU(LU443.90),LU(LU489.70),LU(LU554.70),COMP,TILTX,TILTY,CHECK
1343186165,5807,906.7800292968750000,38.5708007812500000,558.5288696289062000,4.5314788818359375,55.7119903564453100,56,100,102,79,82,15555,0,0,0,0,2147120521,2147777837,2147576886,2147569069,942,3,13,47297
1343189761,5810,994.2800292968750000,42.3716011047363300,565.7285766601562000,4.3082218170166020,55.2208213806152340,55,122,101,78,83,15557,0,0,0,0,2147124800,2147769837,2147574454,2147569636,3447,3,13,31095
1343193361,5810,1007.5399780273438000,42.9074783325195300,566.3646850585938000,4.2884750366210940,55.1508598327636700,55,97,100,77,82,15555,0,0,0,0,2147122688,2147774445,2147578971,2147571218,3541,3,13,16679
1343196961,5808,1015.0800170898438000,42.0444297790527340,566.1425170898438000,4.2953701019287110,55.2734184265136700,55,101,102,78,82,15554,0,0,0,0,2147126729,2147779492,2147574400,2147570368,233,3,13,64623
1343200561,5807,1012.8099975585938000,41.8691291809082000,567.0753173828125000,4.2664132118225100,55.3094596862793000,55,100,100,79,83,15552,0,0,0,0,2147124845,2147778678,2147579465,2147571163,498,3,13,33674
1343204161,5809,1011.1699829101562000,42.2667083740234400,568.4658203125000000,4.2232270240783690,55.2639312744140600,54,103,100,79,83,15556,0,0,0,0,2147122313,2147775277,2147578852,2147569627,287,3,13,31088
1343207761,5811,1005.3300170898438000,42.6807518005371100,569.4221801757812000,4.1935138702392580,55.2156486511230500,56,100,101,78,83,15556,0,0,0,0,2147126418,2147776310,2147578560,2147569883,3575,3,13,34347
1343211361,5807,1010.7100219726562000,43.0322303771972660,569.8748168945312000,4.1794509887695310,55.1697616577148440,55,101,102,79,84,15553,0,0,0,0,2147124105,2147772434,2147575213,2147569682,3535,3,13,36027
1343214961,5808,997.8599853515625000,42.8728904724121100,570.2517089843750000,4.1677379608154300,55.1964187622070300,54,99,101,80,83,15553,0,0,0,0,2147124397,2147771620,2147580800,2147568868,23,3,13,42113
1343218561,5811,1001.1099853515625000,42.8306007385253900,571.7747192382812000,4.1203980445861820,55.2212791442871100,56,99,101,78,83,15555,0,0,0,0,2147127387,2147776941,2147576091,2147570285,3331,3,13,2273
1343222161,5810,1004.8300170898438000,43.1208915710449200,571.3657226562500000,4.1331138610839840,55.1692390441894500,55,99,100,78,83,15554,0,0,0,0,2147122505,2147779456,2147578587,2147571465,104,3,13,8057
1343225761,5812,1006.9299926757812000,42.9584999084472660,570.6737060546875000,4.1546230316162110,55.1893997192382800,56,100,102,79,83,15555,0,0,0,0,2147127570,2147776045,2147579026,2147567817,82,3,13,52911
1343229361,5810,1012.0499877929688000,42.7781715393066400,569.9511718750000000,4.1770758628845215,55.2038803100585940,55,100,101,78,83,15553,0,0,0,0,2147125942,2147771510,2147578166,2147574171,111,3,13,14822
1343232961,5809,1012.7399902343750000,41.9696807861328100,570.2667846679688000,4.1672692298889160,55.3259315490722660,55,99,102,78,82,15550,0,0,0,0,2147124644,2147779876,2147573266,2147570925,245,3,13,14960
1343236561,5808,1012.5200195312500000,42.6787490844726560,569.5053710937500000,4.1909308433532715,55.2176895141601560,55,100,101,79,83,15547,0,0,0,0,2147126299,2147773869,2147575049,2147569216,122,3,13,13898
1343240161,5809,1017.4699707031250000,42.1794700622558600,569.5772705078125000,4.1886959075927730,55.2871398925781250,55,98,101,78,83,15547,0,0,0,0,2147129682,2147772141,2147578624,2147572379,84,3,13,8621
1343243761,5808,1024.9000244140625000,42.0435104370117200,568.2149047851562000,4.2310199737548830,55.2958106994628900,55,102,102,79,83,15548,0,0,0,0,2147128018,2147771584,2147576731,2147570468,125,3,13,61264
1343247361,5807,1010.5100097656250000,42.4570884704589840,570.0161743164062000,4.1750578880310060,55.2541694641113300,55,100,101,79,84,15549,0,0,0,0,2147126793,2147775552,2147577837,2147568932,731,3,13,3312
1343250961,5807,1009.5300292968750000,42.4067916870117200,570.8222045898438000,4.1500067710876465,55.2655906677246100,54,99,101,78,83,15544,0,0,0,0,2147123501,2147767597,2147576374,2147570788,857,3,13,19221
1343254561,5810,1010.2199707031250000,42.1311607360839840,570.7462768554688000,4.1523690223693850,55.3064193725585940,55,98,102,79,83,15545,0,0,0,0,2147123373,2147774912,2147576109,2147574089,3537,3,13,25624
1343258161,5812,1005.8300170898438000,42.4102706909179700,571.1527709960938000,4.1397318840026855,55.2752494812011700,55,99,102,78,84,15547,0,0,0,0,2147124461,2147774482,2147576585,2147569152,796,3,13,52528
1343261761,5810,1013.5499877929688000,42.7631416320800800,571.6906127929688000,4.1230139732360840,55.2283096313476560,55,101,102,79,83,15547,0,0,0,0,2147124571,2147775113,2147576164,2147571309,3411,3,13,44377
1343265361,5810,1018.2299804687500000,42.6929893493652340,570.3170776367188000,4.1657071113586430,55.2207908630371100,55,100,102,79,84,15548,0,0,0,0,2147123739,2147774738,2147577993,2147569709,38,3,13,62881
1343268961,5810,1018.9899902343750000,42.6680297851562500,570.4636840820312000,4.1611480712890625,55.2294311523437500,54,98,102,79,83,15546,0,0,0,0,2147126546,2147772452,2147578642,2147568804,3347,3,13,33672
1343272561,5808,1019.3800048828125000,42.7472381591796900,570.4763793945312000,4.1607527732849120,55.2185096740722660,55,100,100,78,83,15545,0,0,0,0,2147124059,2147771346,2147579538,2147571163,3435,3,13,2573
1343276161,5811,1030.3399658203125000,42.8024711608886700,569.5283813476562000,4.1902160644531250,55.1975097656250000,55,99,102,78,83,15543,0,0,0,0,2147123254,2147768987,2147579483,2147568649,3497,3,13,27788
1343279761,5813,1032.6800537109375000,41.8441886901855500,568.5864868164062000,4.2194790840148930,55.3269615173339840,56,102,102,78,83,15547,0,0,0,0,2147125138,2147771721,2147577106,2147568347,2797,3,13,58378
1343283361,5810,1031.9899902343750000,41.6608581542968750,568.3245239257812000,4.2276167869567870,55.3505401611328100,55,100,99,78,83,15545,0,0,0,0,2147125897,2147771072,2147577965,2147570093,185,3,13,50600
1343286961,5810,1018.6799926757812000,42.1170806884765600,568.1322021484375000,4.2335891723632810,55.2841491699218750,55,136,101,79,82,15538,0,0,0,0,2147123968,2147774116,2147576612,2147567030,234,3,13,6122
1343290561,5809,1012.1199951171875000,41.5950393676757800,568.1956176757812000,4.2316207885742190,55.3569183349609400,55,100,101,79,82,15540,0,0,0,0,2147124388,2147773650,2147576045,2147570386,2677,3,13,19684
1343294161,5809,1012.0200195312500000,41.7173805236816400,569.4494018554688000,4.1926708221435550,55.3536796569824200,55,103,101,79,83,15536,0,0,0,0,2147124150,2147770166,2147579821,2147568548,3330,3,13,13231
1343297761,5812,1011.4600219726562000,42.1031799316406250,570.0526733398438000,4.1739220619201660,55.3047599792480500,55,99,101,78,82,15543,0,0,0,0,2147126107,2147774537,2147577563,2147567158,95,3,13,40243
1343301361,5810,1012.2500000000000000,42.7840309143066400,570.3587036132812000,4.1644129753112790,55.2065582275390600,55,101,100,79,83,15535,0,0,0,0,2147125568,2147775652,2147575387,2147568704,154,3,13,54002
1343304961,5809,1008.7199707031250000,42.1873092651367200,570.8181762695312000,4.1501331329345700,55.3042716979980500,56,98,107,78,82,15539,0,0,0,0,2147123913,2147775195,2147577508,2147569014,109,3,13,17493
1343308561,5811,1007.2600097656250000,41.9069900512695300,570.7274169921875000,4.1529541015625000,55.3395118713378900,54,101,102,80,83,15542,0,0,0,0,2147121846,2147773074,2147576192,2147570038,39,3,13,39402
1343312161,5807,1009.5800170898438000,42.7760581970214840,570.2996215820312000,4.1662502288818360,55.2108688354492200,56,102,101,80,82,15541,0,0,0,0,2147121600,2147773915,2147575670,2147570724,488,3,13,57353
1343315761,5808,1011.5399780273438000,42.1650199890136700,570.4802856445312000,4.1606330871582030,55.3006896972656250,56,107,100,78,83,15542,0,0,0,0,2147124580,2147774436,2147579520,2147571830,3577,3,13,19820
1343319361,5810,1020.9600219726562000,42.3810691833496100,569.3309936523438000,4.1963481903076170,55.2581291198730500,55,98,101,78,83,15541,0,0,0,0,2147122240,2147773732,2147585837,2147570240,182,3,13,29946
1343322961,5810,1026.3699951171875000,42.0866012573242200,568.5316162109375000,4.2211818695068360,55.2942695617675800,56,100,103,79,84,15541,0,0,0,0,2147125257,2147774500,2147579008,2147572251,3214,3,13,52791
1343326561,5811,1024.6500244140625000,41.2597885131835940,567.7498168945312000,4.2454638481140140,55.4080696105957000,55,100,101,79,83,15539,0,0,0,0,2147126217,2147774720,2147575643,2147574098,1007,3,13,13774
1343330161,5808,1016.1900024414062000,41.2177581787109400,569.1182861328125000,4.2029547691345215,55.4271812438964840,54,99,101,78,84,15539,0,0,0,0,2147130249,2147778368,2147578633,2147571867,867,3,13,7061
1343330756,5810,1012.2299804687500000,41.2442283630371100,569.2042846679688000,4.2002849578857420,55.4204597473144500,55,100,100,80,83,15537,0,0,0,0,2147121124,2147774893,2147578605,2147571126,3336,3,13,55184
